Time,TemperatureF,DewpointF,PressureIn,WindDirection,WindDirectionDegrees,WindSpeedMPH,WindSpeedGustMPH,Humidity,HourlyPrecipIn,Conditions,Clouds,dailyrainin,SoftwareType,DateUTC
2013-01-09 00:01:00,38.3,37.5,29.85,East,86,0.0,0.0,97,0.00,,,0.00,WeatherCatV1.12B45,2013-01-09 08:01:00,
2013-01-09 00:06:00,38.1,37.3,29.85,ESE,119,0.0,4.9,97,0.00,,,0.00,WeatherCatV1.12B45,2013-01-09 08:06:00,
2013-01-09 00:11:00,38.5,37.7,29.85,ESE,119,0.0,0.0,97,0.00,,,0.00,WeatherCatV1.12B45,2013-01-09 08:11:00,
2013-01-09 00:16:00,38.3,37.8,29.85,ESE,118,0.0,0.0,98,0.00,,,0.00,WeatherCatV1.12B45,2013-01-09 08:16:00,
2013-01-09 00:21:00,38.1,37.6,29.82,ESE,118,0.0,3.1,98,0.00,,,0.00,WeatherCatV1.12B45,2013-01-09 08:21:00,
2013-01-09 00:26:00,37.9,37.4,29.82,ESE,115,2.7,6.3,98,0.00,,,0.00,WeatherCatV1.12B45,2013-01-09 08:26:00,
2013-01-09 00:31:00,37.9,37.4,29.82,SW,231,2.7,4.0,98,0.00,,,0.00,WeatherCatV1.12B45,2013-01-09 08:31:00,
2013-01-09 00:36:00,37.9,37.4,29.82,ESE,106,5.8,5.8,98,0.00,,,0.00,WeatherCatV1.12B45,2013-01-09 08:36:00,
2013-01-09 00:41:00,37.9,37.4,29.82,ESE,105,3.1,4.9,98,0.00,,,0.00,WeatherCatV1.12B45,2013-01-09 08:41:00,
2013-01-09 00:46:00,38.1,37.6,29.82,SSE,156,2.2,5.8,98,0.00,,,0.00,WeatherCatV1.12B45,2013-01-09 08:46:00,
2013-01-09 00:51:00,38.1,37.6,29.82,SE,124,0.0,0.0,98,0.00,,,0.00,WeatherCatV1.12B45,2013-01-09 08:51:00,
2013-01-09 00:56:00,38.1,37.6,29.82,WSW,253,0.0,5.4,98,0.00,,,0.00,WeatherCatV1.12B45,2013-01-09 08:56:00,
2013-01-09 01:01:00,38.1,37.6,29.82,SE,137,0.0,5.8,98,0.00,,,0.04,WeatherCatV1.12B45,2013-01-09 09:01:00,
2013-01-09 01:06:00,38.1,37.6,29.82,SSE,147,4.0,5.4,98,0.00,,,0.04,WeatherCatV1.12B45,2013-01-09 09:06:00,
2013-01-09 01:11:00,38.1,37.6,29.82,SE,142,3.1,6.3,98,0.00,,,0.04,WeatherCatV1.12B45,2013-01-09 09:11:00,
2013-01-09 01:16:00,38.1,37.6,29.82,ESE,111,6.3,8.1,98,0.00,,,0.04,WeatherCatV1.12B45,2013-01-09 09:16:00,
2013-01-09 01:21:00,38.3,37.8,29.82,ESE,106,3.1,5.8,98,0.00,,,0.04,WeatherCatV1.12B45,2013-01-09 09:21:00,
2013-01-09 01:26:00,38.1,37.6,29.82,East,87,0.0,5.4,98,0.00,,,0.04,WeatherCatV1.12B45,2013-01-09 09:26:00,
2013-01-09 01:31:00,38.1,37.6,29.82,ENE,57,3.6,8.3,98,0.00,,,0.04,WeatherCatV1.12B45,2013-01-09 09:31:00,
2013-01-09 01:36:00,38.1,37.6,29.82,NNE,31,3.1,4.0,98,0.00,,,0.04,WeatherCatV1.12B45,2013-01-09 09:36:00,
2013-01-09 01:41:00,37.9,37.4,29.82,South,182,4.9,5.8,98,0.00,,,0.04,WeatherCatV1.12B45,2013-01-09 09:41:00,
2013-01-09 01:46:00,37.9,37.4,29.82,ESE,102,4.0,11.9,98,0.00,,,0.04,WeatherCatV1.12B45,2013-01-09 09:46:00,
2013-01-09 01:51:00,37.9,37.4,29.82,SSW,200,7.2,8.3,98,0.00,,,0.04,WeatherCatV1.12B45,2013-01-09 09:51:00,
2013-01-09 01:56:00,37.8,37.2,29.82,SSE,160,5.8,7.6,98,0.00,,,0.04,WeatherCatV1.12B45,2013-01-09 09:56:00,
2013-01-09 02:01:00,37.6,37.1,29.82,East,84,5.8,7.6,98,0.00,,,0.04,WeatherCatV1.12B45,2013-01-09 10:01:00,
2013-01-09 02:06:00,37.6,37.1,29.82,SW,230,0.0,6.3,98,0.00,,,0.04,WeatherCatV1.12B45,2013-01-09 10:06:00,
2013-01-09 02:11:00,37.6,36.8,29.82,East,87,3.6,5.8,97,0.00,,,0.04,WeatherCatV1.12B45,2013-01-09 10:11:00,
2013-01-09 02:16:00,37.4,36.6,29.82,East,90,4.9,5.4,97,0.00,,,0.04,WeatherCatV1.12B45,2013-01-09 10:16:00,
2013-01-09 02:21:00,37.2,36.4,29.82,SSE,153,8.1,8.1,97,0.00,,,0.04,WeatherCatV1.12B45,2013-01-09 10:21:00,
2013-01-09 02:26:00,37.2,36.2,29.82,ESE,104,9.6,9.6,96,0.00,,,0.04,WeatherCatV1.12B45,2013-01-09 10:26:00,
2013-01-09 02:31:00,37.4,36.1,29.82,ESE,115,3.6,8.1,95,0.00,,,0.04,WeatherCatV1.12B45,2013-01-09 10:31:00,
2013-01-09 02:36:00,37.4,35.6,29.82,SSE,152,5.4,8.1,93,0.00,,,0.04,WeatherCatV1.12B45,2013-01-09 10:36:00,
2013-01-09 02:41:00,37.4,35.3,29.82,SE,125,0.0,3.6,92,0.00,,,0.04,WeatherCatV1.12B45,2013-01-09 10:41:00,
2013-01-09 02:46:00,37.6,34.9,29.82,NNE,14,0.0,4.0,90,0.00,,,0.04,WeatherCatV1.12B45,2013-01-09 10:46:00,
2013-01-09 02:51:00,37.6,34.4,29.82,ENE,68,2.7,4.9,88,0.00,,,0.04,WeatherCatV1.12B45,2013-01-09 10:51:00,
2013-01-09 02:56:00,37.6,33.8,29.82,SSW,193,2.7,4.0,86,0.00,,,0.04,WeatherCatV1.12B45,2013-01-09 10:56:00,
2013-01-09 03:01:00,37.6,33.8,29.82,SSE,164,0.0,5.4,86,0.00,,,0.04,WeatherCatV1.12B45,2013-01-09 11:01:00,
2013-01-09 03:06:00,37.6,33.5,29.82,SSE,165,0.0,4.9,85,0.00,,,0.04,WeatherCatV1.12B45,2013-01-09 11:06:00,
2013-01-09 03:11:00,37.4,32.7,29.82,SE,129,4.9,8.7,83,0.00,,,0.04,WeatherCatV1.12B45,2013-01-09 11:11:00,
2013-01-09 03:16:00,37.4,31.2,29.82,NE,55,5.4,8.1,78,0.00,,,0.04,WeatherCatV1.12B45,2013-01-09 11:16:00,
2013-01-09 03:21:00,37.6,30.7,29.79,SE,144,2.7,7.6,76,0.00,,,0.04,WeatherCatV1.12B45,2013-01-09 11:21:00,
2013-01-09 03:27:00,37.4,30.2,29.79,SW,214,2.2,5.4,75,0.00,,,0.04,WeatherCatV1.12B45,2013-01-09 11:27:00,
2013-01-09 03:32:00,37.4,30.2,29.79,East,99,5.4,5.4,75,0.00,,,0.04,WeatherCatV1.12B45,2013-01-09 11:32:00,
2013-01-09 03:37:00,37.2,30.0,29.79,ESE,111,5.4,6.3,75,0.00,,,0.04,WeatherCatV1.12B45,2013-01-09 11:37:00,
2013-01-09 03:42:00,37.4,30.5,29.79,ESE,109,3.6,6.3,76,0.00,,,0.04,WeatherCatV1.12B45,2013-01-09 11:42:00,
2013-01-09 03:47:00,37.4,29.9,29.79,ENE,68,4.5,8.7,74,0.00,,,0.04,WeatherCatV1.12B45,2013-01-09 11:47:00,
2013-01-09 03:52:00,37.6,29.4,29.82,SE,135,2.7,11.0,72,0.00,,,0.04,WeatherCatV1.12B45,2013-01-09 11:52:00,
2013-01-09 03:57:00,37.8,28.9,29.82,ENE,58,11.0,11.0,70,0.00,,,0.04,WeatherCatV1.12B45,2013-01-09 11:57:00,
2013-01-09 04:02:00,37.9,28.7,29.82,South,190,4.9,9.6,69,0.00,,,0.04,WeatherCatV1.12B45,2013-01-09 12:02:00,
2013-01-09 04:07:00,37.9,28.0,29.82,ESE,105,2.7,5.4,67,0.00,,,0.04,WeatherCatV1.12B45,2013-01-09 12:07:00,
2013-01-09 04:12:00,37.8,27.8,29.82,East,92,3.1,4.0,67,0.00,,,0.04,WeatherCatV1.12B45,2013-01-09 12:12:00,
2013-01-09 04:17:00,37.6,28.0,29.82,SE,130,5.4,5.4,68,0.00,,,0.04,WeatherCatV1.12B45,2013-01-09 12:17:00,
2013-01-09 04:22:00,37.6,27.6,29.82,East,92,4.9,8.3,67,0.00,,,0.04,WeatherCatV1.12B45,2013-01-09 12:22:00,
2013-01-09 04:27:00,37.2,27.6,29.82,SE,141,7.6,8.7,68,0.00,,,0.04,WeatherCatV1.12B45,2013-01-09 12:27:00,
2013-01-09 04:32:00,36.9,27.7,29.82,SE,140,3.6,4.0,69,0.00,,,0.04,WeatherCatV1.12B45,2013-01-09 12:32:00,
2013-01-09 04:37:00,36.9,28.0,29.79,ESE,117,2.7,4.0,70,0.00,,,0.04,WeatherCatV1.12B45,2013-01-09 12:37:00,
2013-01-09 04:42:00,36.7,28.2,29.79,NE,54,2.7,7.6,71,0.00,,,0.04,WeatherCatV1.12B45,2013-01-09 12:42:00,
2013-01-09 04:47:00,36.7,28.2,29.79,ESE,105,6.3,6.3,71,0.00,,,0.04,WeatherCatV1.12B45,2013-01-09 12:47:00,
2013-01-09 04:52:00,36.9,28.4,29.79,ESE,123,2.2,5.8,71,0.00,,,0.04,WeatherCatV1.12B45,2013-01-09 12:52:00,
2013-01-09 04:57:00,36.9,28.4,29.79,SSE,152,2.2,5.4,71,0.00,,,0.04,WeatherCatV1.12B45,2013-01-09 12:57:00,
2013-01-09 05:02:00,37.0,28.2,29.79,East,96,2.7,3.6,70,0.00,,,0.04,WeatherCatV1.12B45,2013-01-09 13:02:00,
2013-01-09 05:07:00,37.0,28.2,29.82,ESE,117,2.7,6.3,70,0.00,,,0.04,WeatherCatV1.12B45,2013-01-09 13:07:00,
2013-01-09 05:12:00,37.2,28.0,29.82,ESE,116,0.0,5.4,69,0.00,,,0.04,WeatherCatV1.12B45,2013-01-09 13:12:00,
2013-01-09 05:17:00,37.2,27.6,29.82,East,97,6.3,6.3,68,0.00,,,0.04,WeatherCatV1.12B45,2013-01-09 13:17:00,
2013-01-09 05:22:00,37.4,27.5,29.79,ESE,114,3.6,6.3,67,0.00,,,0.04,WeatherCatV1.12B45,2013-01-09 13:22:00,
2013-01-09 05:27:00,37.4,27.5,29.79,ESE,102,3.1,8.1,67,0.00,,,0.04,WeatherCatV1.12B45,2013-01-09 13:27:00,
2013-01-09 05:32:00,37.4,27.1,29.79,ESE,120,4.9,7.6,66,0.00,,,0.04,WeatherCatV1.12B45,2013-01-09 13:32:00,
2013-01-09 05:37:00,37.4,27.1,29.79,SSE,152,0.0,7.6,66,0.00,,,0.04,WeatherCatV1.12B45,2013-01-09 13:37:00,
2013-01-09 05:42:00,37.4,26.7,29.79,East,101,3.6,6.3,65,0.00,,,0.04,WeatherCatV1.12B45,2013-01-09 13:42:00,
2013-01-09 05:47:00,37.6,26.5,29.79,ESE,122,3.1,9.6,64,0.00,,,0.04,WeatherCatV1.12B45,2013-01-09 13:47:00,
2013-01-09 05:52:00,37.9,26.1,29.79,SE,138,3.6,5.8,62,0.00,,,0.04,WeatherCatV1.12B45,2013-01-09 13:52:00,
2013-01-09 05:57:00,37.9,25.7,29.79,ESE,117,0.0,4.0,61,0.00,,,0.04,WeatherCatV1.12B45,2013-01-09 13:57:00,
2013-01-09 06:02:00,37.9,25.7,29.79,East,98,0.0,6.7,61,0.00,,,0.04,WeatherCatV1.12B45,2013-01-09 14:02:00,
2013-01-09 06:07:00,37.9,25.7,29.76,ESE,112,0.0,3.1,61,0.00,,,0.04,WeatherCatV1.12B45,2013-01-09 14:07:00,
2013-01-09 06:12:00,37.9,25.7,29.76,SE,127,3.1,5.4,61,0.00,,,0.04,WeatherCatV1.12B45,2013-01-09 14:12:00,
2013-01-09 06:17:00,38.1,25.5,29.76,SSW,205,0.0,2.2,60,0.00,,,0.04,WeatherCatV1.12B45,2013-01-09 14:17:00,
2013-01-09 06:22:00,38.1,25.5,29.76,ESE,122,2.7,5.4,60,0.00,,,0.04,WeatherCatV1.12B45,2013-01-09 14:22:00,
2013-01-09 06:27:00,38.1,25.1,29.76,SSE,157,2.2,5.4,59,0.00,,,0.04,WeatherCatV1.12B45,2013-01-09 14:27:00,
2013-01-09 06:32:00,38.3,24.4,29.76,SE,127,8.3,10.1,57,0.00,,,0.04,WeatherCatV1.12B45,2013-01-09 14:32:00,
2013-01-09 06:37:00,38.7,24.3,29.76,ESE,104,5.4,5.4,56,0.00,,,0.04,WeatherCatV1.12B45,2013-01-09 14:37:00,
2013-01-09 06:42:00,38.7,23.9,29.76,SE,135,3.6,7.6,55,0.00,,,0.04,WeatherCatV1.12B45,2013-01-09 14:42:00,
2013-01-09 06:47:00,38.7,23.9,29.76,ESE,119,4.9,6.7,55,0.00,,,0.04,WeatherCatV1.12B45,2013-01-09 14:47:00,
2013-01-09 06:52:00,38.7,23.9,29.76,ESE,114,2.7,10.5,55,0.00,,,0.04,WeatherCatV1.12B45,2013-01-09 14:52:00,
2013-01-09 06:57:00,38.7,23.9,29.76,SW,217,3.1,4.9,55,0.00,,,0.04,WeatherCatV1.12B45,2013-01-09 14:57:00,
2013-01-09 07:02:00,38.5,23.3,29.76,East,84,6.3,6.3,54,0.00,,,0.04,WeatherCatV1.12B45,2013-01-09 15:02:00,
2013-01-09 07:07:00,39.0,23.8,29.76,East,87,3.6,8.7,54,0.00,,,0.04,WeatherCatV1.12B45,2013-01-09 15:07:00,
2013-01-09 07:12:00,39.6,23.4,29.76,East,96,3.6,8.1,52,0.00,,,0.04,WeatherCatV1.12B45,2013-01-09 15:12:00,
2013-01-09 07:17:00,39.6,22.9,29.76,WSW,237,3.6,10.5,51,0.00,,,0.04,WeatherCatV1.12B45,2013-01-09 15:17:00,
2013-01-09 07:22:00,39.9,22.8,29.76,ESE,120,5.4,5.4,50,0.00,,,0.04,WeatherCatV1.12B45,2013-01-09 15:22:00,
2013-01-09 07:27:00,39.9,22.8,29.76,SSE,149,2.7,6.3,50,0.00,,,0.04,WeatherCatV1.12B45,2013-01-09 15:27:00,
2013-01-09 07:32:00,39.9,22.8,29.76,SSE,157,7.6,14.1,50,0.00,,,0.04,WeatherCatV1.12B45,2013-01-09 15:32:00,
2013-01-09 07:37:00,39.9,22.8,29.73,South,186,7.6,12.8,50,0.00,,,0.04,WeatherCatV1.12B45,2013-01-09 15:37:00,
2013-01-09 07:42:00,40.1,23.0,29.73,SSE,150,9.6,17.4,50,0.00,,,0.04,WeatherCatV1.12B45,2013-01-09 15:42:00,
2013-01-09 07:47:00,40.1,23.4,29.73,SSW,193,6.3,6.3,51,0.00,,,0.04,WeatherCatV1.12B45,2013-01-09 15:47:00,
2013-01-09 07:52:00,40.1,23.4,29.73,South,182,5.4,9.6,51,0.00,,,0.04,WeatherCatV1.12B45,2013-01-09 15:52:00,
2013-01-09 07:57:00,40.5,23.8,29.73,SW,220,5.8,6.3,51,0.00,,,0.04,WeatherCatV1.12B45,2013-01-09 15:57:00,
2013-01-09 08:02:00,40.6,23.9,29.73,SW,230,5.8,8.3,51,0.00,,,0.04,WeatherCatV1.12B45,2013-01-09 16:02:00,
2013-01-09 08:07:00,40.8,24.1,29.73,SE,130,8.3,9.6,51,0.00,,,0.04,WeatherCatV1.12B45,2013-01-09 16:07:00,
2013-01-09 08:12:00,41.0,24.3,29.73,South,178,5.4,12.3,51,0.00,,,0.04,WeatherCatV1.12B45,2013-01-09 16:12:00,
2013-01-09 08:17:00,41.2,24.4,29.73,SE,146,3.6,5.8,51,0.00,,,0.04,WeatherCatV1.12B45,2013-01-09 16:17:00,
2013-01-09 08:22:00,41.4,24.1,29.73,ESE,114,3.6,10.1,50,0.00,,,0.04,WeatherCatV1.12B45,2013-01-09 16:22:00,
2013-01-09 08:27:00,41.2,24.0,29.73,WSW,237,3.6,5.8,50,0.00,,,0.04,WeatherCatV1.12B45,2013-01-09 16:27:00,
2013-01-09 08:32:00,41.2,24.4,29.73,SSW,204,7.6,7.6,51,0.00,,,0.04,WeatherCatV1.12B45,2013-01-09 16:32:00,
2013-01-09 08:37:00,41.2,24.4,29.73,SSW,205,4.0,13.2,51,0.00,,,0.04,WeatherCatV1.12B45,2013-01-09 16:37:00,
2013-01-09 08:42:00,41.2,24.4,29.73,ESE,119,6.3,9.2,51,0.00,,,0.04,WeatherCatV1.12B45,2013-01-09 16:42:00,
2013-01-09 08:47:00,41.2,24.9,29.73,SE,129,5.4,11.0,52,0.00,,,0.04,WeatherCatV1.12B45,2013-01-09 16:47:00,
2013-01-09 08:52:00,41.2,24.9,29.73,East,99,5.4,15.0,52,0.00,,,0.04,WeatherCatV1.12B45,2013-01-09 16:52:00,
2013-01-09 08:57:00,41.2,24.9,29.73,ESE,122,4.0,7.6,52,0.00,,,0.04,WeatherCatV1.12B45,2013-01-09 16:57:00,
2013-01-09 09:02:00,41.2,24.9,29.73,SE,124,2.2,5.8,52,0.00,,,0.04,WeatherCatV1.12B45,2013-01-09 17:02:00,
2013-01-09 09:07:00,41.2,25.4,29.70,ESE,117,2.7,10.1,53,0.00,,,0.04,WeatherCatV1.12B45,2013-01-09 17:07:00,
2013-01-09 09:12:00,41.2,25.4,29.70,East,93,2.2,7.6,53,0.00,,,0.04,WeatherCatV1.12B45,2013-01-09 17:12:00,
2013-01-09 09:17:00,41.5,25.7,29.70,NE,48,2.2,11.9,53,0.00,,,0.04,WeatherCatV1.12B45,2013-01-09 17:17:00,
2013-01-09 09:22:00,41.7,25.4,29.70,SE,139,3.1,8.7,52,0.00,,,0.04,WeatherCatV1.12B45,2013-01-09 17:22:00,
2013-01-09 09:27:00,41.9,25.6,29.70,ESE,103,2.7,8.1,52,0.00,,,0.04,WeatherCatV1.12B45,2013-01-09 17:27:00,
2013-01-09 09:32:00,42.3,25.9,29.70,ESE,110,2.7,8.7,52,0.00,,,0.04,WeatherCatV1.12B45,2013-01-09 17:32:00,
2013-01-09 09:37:00,42.4,25.6,29.70,SE,143,5.8,8.1,51,0.00,,,0.04,WeatherCatV1.12B45,2013-01-09 17:37:00,
2013-01-09 09:42:00,42.6,25.3,29.70,ESE,119,9.2,9.6,50,0.00,,,0.04,WeatherCatV1.12B45,2013-01-09 17:42:00,
2013-01-09 09:47:00,42.8,25.5,29.70,ESE,113,8.1,12.3,50,0.00,,,0.04,WeatherCatV1.12B45,2013-01-09 17:47:00,
2013-01-09 09:52:00,43.0,25.6,29.70,ESE,119,0.0,15.0,50,0.00,,,0.04,WeatherCatV1.12B45,2013-01-09 17:52:00,
2013-01-09 09:57:00,43.2,25.3,29.70,SSE,155,2.2,8.1,49,0.00,,,0.04,WeatherCatV1.12B45,2013-01-09 17:57:00,
2013-01-09 10:02:00,43.3,25.5,29.70,South,190,8.1,8.1,49,0.00,,,0.04,WeatherCatV1.12B45,2013-01-09 18:02:00,
2013-01-09 10:07:00,43.5,25.6,29.67,East,99,0.0,4.0,49,0.00,,,0.04,WeatherCatV1.12B45,2013-01-09 18:07:00,
2013-01-09 10:12:00,43.3,25.5,29.67,SE,146,15.0,15.0,49,0.00,,,0.04,WeatherCatV1.12B45,2013-01-09 18:12:00,
2013-01-09 10:17:00,43.3,25.5,29.67,ENE,77,10.1,13.2,49,0.00,,,0.04,WeatherCatV1.12B45,2013-01-09 18:17:00,
2013-01-09 10:22:00,43.0,25.1,29.67,ESE,121,4.0,4.9,49,0.00,,,0.04,WeatherCatV1.12B45,2013-01-09 18:22:00,
2013-01-09 10:27:00,43.2,25.3,29.67,SW,220,2.7,5.4,49,0.00,,,0.04,WeatherCatV1.12B45,2013-01-09 18:27:00,
2013-01-09 10:32:00,43.5,25.6,29.67,SSW,194,3.6,8.3,49,0.00,,,0.04,WeatherCatV1.12B45,2013-01-09 18:32:00,
2013-01-09 10:37:00,43.5,25.6,29.67,East,96,3.1,11.0,49,0.00,,,0.04,WeatherCatV1.12B45,2013-01-09 18:37:00,
2013-01-09 10:41:00,43.3,25.5,29.67,South,174,4.5,12.8,49,0.00,,,0.04,WeatherCatV1.12B45,2013-01-09 18:41:00,
2013-01-09 10:44:00,43.5,25.6,29.67,East,82,3.1,7.6,49,0.00,,,0.04,WeatherCatV1.12B45,2013-01-09 18:44:00,
2013-01-09 10:48:00,43.5,25.6,29.67,SSW,198,10.1,11.0,49,0.00,,,0.04,WeatherCatV1.12B45,2013-01-09 18:48:00,
2013-01-09 10:53:00,43.5,25.6,29.67,SSW,199,8.7,8.7,49,0.00,,,0.04,WeatherCatV1.12B45,2013-01-09 18:53:00,
2013-01-09 10:58:00,43.7,25.3,29.67,South,187,8.3,9.6,48,0.00,,,0.04,WeatherCatV1.12B45,2013-01-09 18:58:00,
2013-01-09 11:03:00,43.9,25.5,29.67,SSW,209,4.0,6.3,48,0.00,,,0.04,WeatherCatV1.12B45,2013-01-09 19:03:00,
2013-01-09 11:08:00,43.9,25.5,29.67,ENE,67,3.1,7.6,48,0.00,,,0.04,WeatherCatV1.12B45,2013-01-09 19:08:00,
2013-01-09 11:13:00,43.7,25.3,29.67,SE,136,2.2,8.3,48,0.00,,,0.04,WeatherCatV1.12B45,2013-01-09 19:13:00,
2013-01-09 11:18:00,43.9,25.5,29.67,ESE,121,7.6,8.3,48,0.00,,,0.04,WeatherCatV1.12B45,2013-01-09 19:18:00,
2013-01-09 11:23:00,44.1,25.6,29.64,ESE,116,4.5,6.7,48,0.00,,,0.04,WeatherCatV1.12B45,2013-01-09 19:23:00,
2013-01-09 11:28:00,44.2,25.8,29.64,ENE,77,3.1,8.7,48,0.00,,,0.04,WeatherCatV1.12B45,2013-01-09 19:28:00,
2013-01-09 11:33:00,44.2,25.3,29.64,SE,143,3.6,8.3,47,0.00,,,0.04,WeatherCatV1.12B45,2013-01-09 19:33:00,
2013-01-09 11:38:00,44.2,25.3,29.64,East,96,5.8,11.0,47,0.00,,,0.04,WeatherCatV1.12B45,2013-01-09 19:38:00,
2013-01-09 11:43:00,44.2,25.3,29.64,ESE,121,10.1,10.5,47,0.00,,,0.04,WeatherCatV1.12B45,2013-01-09 19:43:00,
2013-01-09 11:48:00,44.2,25.3,29.64,SE,142,5.4,5.4,47,0.00,,,0.04,WeatherCatV1.12B45,2013-01-09 19:48:00,
2013-01-09 11:53:00,44.1,25.1,29.64,SSE,164,5.4,10.5,47,0.00,,,0.04,WeatherCatV1.12B45,2013-01-09 19:53:00,
2013-01-09 11:58:00,44.1,24.6,29.64,East,97,8.3,8.3,46,0.00,,,0.04,WeatherCatV1.12B45,2013-01-09 19:58:00,
2013-01-09 12:03:00,43.7,24.8,29.64,South,173,4.0,15.0,47,0.00,,,0.04,WeatherCatV1.12B45,2013-01-09 20:03:00,
2013-01-09 12:08:00,43.7,24.8,29.64,SE,124,5.4,5.4,47,0.00,,,0.04,WeatherCatV1.12B45,2013-01-09 20:08:00,
2013-01-09 12:13:00,43.9,24.5,29.64,SW,216,2.2,8.1,46,0.00,,,0.04,WeatherCatV1.12B45,2013-01-09 20:13:00,
2013-01-09 12:18:00,44.1,24.6,29.64,SSW,198,8.1,8.1,46,0.00,,,0.04,WeatherCatV1.12B45,2013-01-09 20:18:00,
2013-01-09 12:23:00,44.1,24.6,29.64,SSE,149,7.2,8.7,46,0.00,,,0.04,WeatherCatV1.12B45,2013-01-09 20:23:00,
2013-01-09 12:28:00,44.2,24.8,29.64,SSE,163,4.5,6.3,46,0.00,,,0.04,WeatherCatV1.12B45,2013-01-09 20:28:00,
2013-01-09 12:33:00,44.1,24.1,29.64,South,179,5.4,7.6,45,0.00,,,0.04,WeatherCatV1.12B45,2013-01-09 20:33:00,
2013-01-09 12:38:00,44.1,24.6,29.64,ESE,109,5.8,5.8,46,0.00,,,0.04,WeatherCatV1.12B45,2013-01-09 20:38:00,
2013-01-09 12:43:00,43.9,24.5,29.64,ESE,114,6.3,8.1,46,0.00,,,0.04,WeatherCatV1.12B45,2013-01-09 20:43:00,
2013-01-09 12:48:00,43.7,24.3,29.64,South,189,7.2,7.2,46,0.00,,,0.04,WeatherCatV1.12B45,2013-01-09 20:48:00,
2013-01-09 12:53:00,43.5,24.1,29.64,East,87,2.7,5.8,46,0.00,,,0.04,WeatherCatV1.12B45,2013-01-09 20:53:00,
2013-01-09 12:58:00,43.2,24.3,29.64,SSW,207,0.0,8.1,47,0.00,,,0.04,WeatherCatV1.12B45,2013-01-09 20:58:00,
2013-01-09 13:03:00,43.3,24.5,29.64,ESE,119,2.2,8.7,47,0.00,,,0.04,WeatherCatV1.12B45,2013-01-09 21:03:00,
2013-01-09 13:08:00,43.3,24.5,29.64,ESE,111,7.6,7.6,47,0.00,,,0.04,WeatherCatV1.12B45,2013-01-09 21:08:00,
2013-01-09 13:13:00,43.3,24.5,29.64,SE,127,4.0,7.6,47,0.00,,,0.04,WeatherCatV1.12B45,2013-01-09 21:13:00,
2013-01-09 13:18:00,43.2,24.3,29.64,East,99,10.1,10.1,47,0.00,,,0.04,WeatherCatV1.12B45,2013-01-09 21:18:00,
2013-01-09 13:23:00,43.0,24.6,29.61,SE,130,0.0,5.8,48,0.00,,,0.04,WeatherCatV1.12B45,2013-01-09 21:23:00,
2013-01-09 13:28:00,42.8,24.5,29.61,SE,136,0.0,6.3,48,0.00,,,0.04,WeatherCatV1.12B45,2013-01-09 21:28:00,
2013-01-09 13:33:00,42.8,24.5,29.61,SE,136,3.6,5.4,48,0.00,,,0.04,WeatherCatV1.12B45,2013-01-09 21:33:00,
2013-01-09 13:38:00,42.8,24.5,29.61,SSE,155,3.1,5.4,48,0.00,,,0.04,WeatherCatV1.12B45,2013-01-09 21:38:00,
2013-01-09 13:43:00,42.6,24.8,29.61,SE,128,4.0,4.0,49,0.00,,,0.04,WeatherCatV1.12B45,2013-01-09 21:43:00,
2013-01-09 13:48:00,42.6,24.8,29.61,SSE,158,3.1,4.0,49,0.00,,,0.04,WeatherCatV1.12B45,2013-01-09 21:48:00,
2013-01-09 13:53:00,42.8,24.5,29.61,East,96,0.0,2.7,48,0.00,,,0.04,WeatherCatV1.12B45,2013-01-09 21:53:00,
2013-01-09 13:58:00,42.8,24.5,29.61,SE,140,3.1,6.3,48,0.00,,,0.04,WeatherCatV1.12B45,2013-01-09 21:58:00,
2013-01-09 14:03:00,42.6,24.3,29.61,ENE,75,3.6,7.2,48,0.00,,,0.04,WeatherCatV1.12B45,2013-01-09 22:03:00,
2013-01-09 14:08:00,42.4,24.2,29.64,SE,126,0.0,0.0,48,0.00,,,0.04,WeatherCatV1.12B45,2013-01-09 22:08:00,
2013-01-09 14:13:00,42.4,24.2,29.64,WSW,248,0.0,0.0,48,0.00,,,0.04,WeatherCatV1.12B45,2013-01-09 22:13:00,
2013-01-09 14:18:00,42.6,24.3,29.64,ESE,116,0.0,0.0,48,0.00,,,0.04,WeatherCatV1.12B45,2013-01-09 22:18:00,
2013-01-09 14:23:00,42.4,23.7,29.64,SSW,203,5.4,5.8,47,0.00,,,0.04,WeatherCatV1.12B45,2013-01-09 22:23:00,
2013-01-09 14:28:00,42.8,22.9,29.64,ESE,108,0.0,0.0,45,0.00,,,0.04,WeatherCatV1.12B45,2013-01-09 22:28:00,
2013-01-09 14:33:00,42.8,22.4,29.64,SSW,211,0.0,3.6,44,0.00,,,0.04,WeatherCatV1.12B45,2013-01-09 22:33:00,
2013-01-09 14:38:00,42.8,22.4,29.64,NE,53,2.7,4.9,44,0.00,,,0.04,WeatherCatV1.12B45,2013-01-09 22:38:00,
2013-01-09 14:43:00,42.8,21.9,29.64,WNW,285,5.8,5.8,43,0.00,,,0.04,WeatherCatV1.12B45,2013-01-09 22:43:00,
2013-01-09 14:48:00,42.6,21.7,29.64,SSE,158,0.0,8.3,43,0.00,,,0.04,WeatherCatV1.12B45,2013-01-09 22:48:00,
2013-01-09 14:53:00,42.4,21.5,29.64,WSW,257,3.6,5.8,43,0.00,,,0.04,WeatherCatV1.12B45,2013-01-09 22:53:00,
2013-01-09 14:58:00,42.3,21.9,29.64,ENE,63,2.7,2.7,44,0.00,,,0.04,WeatherCatV1.12B45,2013-01-09 22:58:00,
2013-01-09 15:04:00,42.1,21.8,29.64,South,186,3.6,4.0,44,0.00,,,0.04,WeatherCatV1.12B45,2013-01-09 23:04:00,
2013-01-09 15:09:00,41.9,21.6,29.64,NNE,26,0.0,4.0,44,0.00,,,0.04,WeatherCatV1.12B45,2013-01-09 23:09:00,
2013-01-09 15:14:00,41.5,21.8,29.64,East,89,0.0,0.0,45,0.00,,,0.04,WeatherCatV1.12B45,2013-01-09 23:14:00,
2013-01-09 15:19:00,41.2,22.0,29.64,ESE,123,0.0,6.3,46,0.00,,,0.04,WeatherCatV1.12B45,2013-01-09 23:19:00,
2013-01-09 15:24:00,41.0,21.8,29.67,WSW,239,4.9,5.8,46,0.00,,,0.04,WeatherCatV1.12B45,2013-01-09 23:24:00,
2013-01-09 15:29:00,40.6,22.0,29.67,ESE,108,0.0,3.1,47,0.00,,,0.04,WeatherCatV1.12B45,2013-01-09 23:29:00,
2013-01-09 15:34:00,40.5,22.8,29.67,South,189,0.0,0.0,49,0.00,,,0.04,WeatherCatV1.12B45,2013-01-09 23:34:00,
2013-01-09 15:39:00,40.3,22.7,29.67,ESE,116,4.0,4.0,49,0.00,,,0.04,WeatherCatV1.12B45,2013-01-09 23:39:00,
2013-01-09 15:44:00,40.3,23.1,29.67,SSE,160,8.1,8.3,50,0.00,,,0.04,WeatherCatV1.12B45,2013-01-09 23:44:00,
2013-01-09 15:49:00,40.3,23.1,29.67,South,185,2.2,7.2,50,0.00,,,0.04,WeatherCatV1.12B45,2013-01-09 23:49:00,
2013-01-09 15:54:00,40.1,23.4,29.67,SW,225,3.1,3.1,51,0.00,,,0.04,WeatherCatV1.12B45,2013-01-09 23:54:00,
2013-01-09 15:59:00,39.9,23.3,29.67,SE,127,2.7,6.3,51,0.00,,,0.04,WeatherCatV1.12B45,2013-01-09 23:59:00,
2013-01-09 16:04:00,39.9,23.3,29.67,ESE,103,3.1,5.4,51,0.00,,,0.04,WeatherCatV1.12B45,2013-01-10 00:04:00,
2013-01-09 16:09:00,39.9,23.3,29.67,SW,218,8.1,8.1,51,0.00,,,0.04,WeatherCatV1.12B45,2013-01-10 00:09:00,
2013-01-09 16:14:00,39.9,23.7,29.67,East,92,14.5,14.5,52,0.00,,,0.04,WeatherCatV1.12B45,2013-01-10 00:14:00,
2013-01-09 16:19:00,39.9,23.3,29.67,SE,139,3.6,8.1,51,0.00,,,0.04,WeatherCatV1.12B45,2013-01-10 00:19:00,
2013-01-09 16:24:00,39.7,23.6,29.67,SSE,163,3.6,14.5,52,0.00,,,0.04,WeatherCatV1.12B45,2013-01-10 00:24:00,
2013-01-09 16:29:00,39.4,23.2,29.67,SSW,192,0.0,4.0,52,0.00,,,0.04,WeatherCatV1.12B45,2013-01-10 00:29:00,
2013-01-09 16:34:00,38.8,23.6,29.67,SSW,203,8.3,8.3,54,0.00,,,0.04,WeatherCatV1.12B45,2013-01-10 00:34:00,
2013-01-09 16:39:00,38.7,23.5,29.67,ESE,102,2.7,5.4,54,0.00,,,0.04,WeatherCatV1.12B45,2013-01-10 00:39:00,
2013-01-09 16:44:00,38.1,23.8,29.67,West,273,0.0,3.6,56,0.00,,,0.04,WeatherCatV1.12B45,2013-01-10 00:44:00,
2013-01-09 16:49:00,38.1,24.7,29.67,NNE,27,5.8,13.2,58,0.00,,,0.04,WeatherCatV1.12B45,2013-01-10 00:49:00,
2013-01-09 16:54:00,37.9,24.5,29.67,East,89,0.0,0.0,58,0.00,,,0.04,WeatherCatV1.12B45,2013-01-10 00:54:00,
2013-01-09 16:59:00,37.8,24.7,29.67,West,274,6.3,6.3,59,0.00,,,0.04,WeatherCatV1.12B45,2013-01-10 00:59:00,
2013-01-09 17:04:00,37.8,24.7,29.67,NE,40,4.0,4.9,59,0.00,,,0.04,WeatherCatV1.12B45,2013-01-10 01:04:00,
2013-01-09 17:09:00,37.6,24.6,29.70,NNE,13,0.0,6.3,59,0.00,,,0.04,WeatherCatV1.12B45,2013-01-10 01:09:00,
2013-01-09 17:14:00,37.2,24.6,29.70,SSW,210,0.0,3.1,60,0.00,,,0.04,WeatherCatV1.12B45,2013-01-10 01:14:00,
2013-01-09 17:19:00,37.0,24.5,29.70,NNE,19,0.0,2.7,60,0.00,,,0.04,WeatherCatV1.12B45,2013-01-10 01:19:00,
2013-01-09 17:24:00,36.9,24.3,29.70,SSE,167,4.0,5.8,60,0.00,,,0.04,WeatherCatV1.12B45,2013-01-10 01:24:00,
2013-01-09 17:29:00,36.9,24.3,29.70,ESE,113,4.9,4.9,60,0.00,,,0.04,WeatherCatV1.12B45,2013-01-10 01:29:00,
2013-01-09 17:34:00,36.9,24.3,29.70,South,181,0.0,2.2,60,0.00,,,0.04,WeatherCatV1.12B45,2013-01-10 01:34:00,
2013-01-09 17:39:00,36.7,24.1,29.70,East,81,0.0,8.1,60,0.00,,,0.04,WeatherCatV1.12B45,2013-01-10 01:39:00,
2013-01-09 17:44:00,36.7,24.1,29.70,SW,226,6.3,6.3,60,0.00,,,0.04,WeatherCatV1.12B45,2013-01-10 01:44:00,
2013-01-09 17:49:00,36.7,24.1,29.70,WSW,247,0.0,5.4,60,0.00,,,0.04,WeatherCatV1.12B45,2013-01-10 01:49:00,
2013-01-09 17:54:00,36.3,23.8,29.70,South,173,3.1,5.4,60,0.00,,,0.04,WeatherCatV1.12B45,2013-01-10 01:54:00,
2013-01-09 17:59:00,36.1,23.2,29.70,South,180,0.0,3.6,59,0.00,,,0.04,WeatherCatV1.12B45,2013-01-10 01:59:00,
2013-01-09 18:04:00,36.1,23.2,29.70,ESE,115,2.7,2.7,59,0.00,,,0.04,WeatherCatV1.12B45,2013-01-10 02:04:00,
2013-01-09 18:09:00,36.1,23.2,29.70,SE,146,0.0,0.0,59,0.00,,,0.04,WeatherCatV1.12B45,2013-01-10 02:09:00,
2013-01-09 18:14:00,36.1,23.2,29.70,WSW,244,0.0,4.0,59,0.00,,,0.04,WeatherCatV1.12B45,2013-01-10 02:14:00,
2013-01-09 18:19:00,36.0,24.2,29.70,South,185,4.0,10.5,62,0.00,,,0.04,WeatherCatV1.12B45,2013-01-10 02:19:00,
2013-01-09 18:24:00,35.8,24.1,29.70,South,184,4.0,6.3,62,0.00,,,0.04,WeatherCatV1.12B45,2013-01-10 02:24:00,
2013-01-09 18:29:00,35.6,24.3,29.70,ESE,123,4.0,6.3,63,0.00,,,0.04,WeatherCatV1.12B45,2013-01-10 02:29:00,
2013-01-09 18:34:00,35.6,25.0,29.70,SE,145,3.6,8.7,65,0.00,,,0.04,WeatherCatV1.12B45,2013-01-10 02:34:00,
2013-01-09 18:39:00,35.6,25.4,29.73,ENE,76,3.6,3.6,66,0.00,,,0.04,WeatherCatV1.12B45,2013-01-10 02:39:00,
2013-01-09 18:44:00,35.6,25.4,29.73,SW,233,2.7,3.6,66,0.00,,,0.04,WeatherCatV1.12B45,2013-01-10 02:44:00,
2013-01-09 18:49:00,35.6,25.7,29.73,SE,124,0.0,3.1,67,0.00,,,0.04,WeatherCatV1.12B45,2013-01-10 02:49:00,
2013-01-09 18:54:00,35.6,25.7,29.73,South,180,2.2,4.0,67,0.00,,,0.04,WeatherCatV1.12B45,2013-01-10 02:54:00,
2013-01-09 18:59:00,35.4,25.6,29.73,SW,216,0.0,4.9,67,0.00,,,0.04,WeatherCatV1.12B45,2013-01-10 02:59:00,
2013-01-09 19:04:00,35.4,25.6,29.73,WSW,241,0.0,6.3,67,0.00,,,0.04,WeatherCatV1.12B45,2013-01-10 03:04:00,
2013-01-09 19:09:00,35.4,25.2,29.73,SSW,212,0.0,3.6,66,0.00,,,0.04,WeatherCatV1.12B45,2013-01-10 03:09:00,
2013-01-09 19:14:00,35.2,25.4,29.73,East,84,0.0,8.1,67,0.00,,,0.04,WeatherCatV1.12B45,2013-01-10 03:14:00,
2013-01-09 19:19:00,35.2,25.4,29.73,WSW,243,2.7,4.0,67,0.00,,,0.04,WeatherCatV1.12B45,2013-01-10 03:19:00,
2013-01-09 19:24:00,35.2,25.4,29.73,SW,233,4.0,5.4,67,0.00,,,0.04,WeatherCatV1.12B45,2013-01-10 03:24:00,
2013-01-09 19:29:00,35.4,25.6,29.73,SSW,194,3.6,5.8,67,0.00,,,0.04,WeatherCatV1.12B45,2013-01-10 03:29:00,
2013-01-09 19:34:00,35.4,25.6,29.73,SSE,163,4.9,6.3,67,0.00,,,0.04,WeatherCatV1.12B45,2013-01-10 03:34:00,
2013-01-09 19:39:00,35.4,25.2,29.73,South,171,3.1,7.6,66,0.00,,,0.04,WeatherCatV1.12B45,2013-01-10 03:39:00,
2013-01-09 19:44:00,35.6,24.6,29.73,SW,220,3.6,4.0,64,0.00,,,0.04,WeatherCatV1.12B45,2013-01-10 03:44:00,
2013-01-09 19:49:00,35.4,24.5,29.73,South,183,3.6,6.3,64,0.00,,,0.04,WeatherCatV1.12B45,2013-01-10 03:49:00,
2013-01-09 19:54:00,35.4,24.5,29.73,SSW,194,3.6,3.6,64,0.00,,,0.04,WeatherCatV1.12B45,2013-01-10 03:54:00,
2013-01-09 19:59:00,35.4,24.8,29.73,SSE,168,4.5,5.4,65,0.00,,,0.04,WeatherCatV1.12B45,2013-01-10 03:59:00,
2013-01-09 20:04:00,35.4,25.2,29.73,SSW,210,3.1,8.3,66,0.00,,,0.04,WeatherCatV1.12B45,2013-01-10 04:04:00,
2013-01-09 20:09:00,35.4,25.2,29.73,SSW,198,0.0,3.6,66,0.00,,,0.04,WeatherCatV1.12B45,2013-01-10 04:09:00,
2013-01-09 20:14:00,35.2,25.0,29.73,SSE,149,4.9,6.7,66,0.00,,,0.04,WeatherCatV1.12B45,2013-01-10 04:14:00,
2013-01-09 20:19:00,35.1,25.2,29.73,South,175,4.9,5.8,67,0.00,,,0.04,WeatherCatV1.12B45,2013-01-10 04:19:00,
2013-01-09 20:24:00,35.1,25.2,29.73,South,175,5.8,5.8,67,0.00,,,0.04,WeatherCatV1.12B45,2013-01-10 04:24:00,
2013-01-09 20:29:00,35.1,25.6,29.73,SSE,151,0.0,0.0,68,0.00,,,0.04,WeatherCatV1.12B45,2013-01-10 04:29:00,
2013-01-09 20:34:00,34.9,25.8,29.73,WSW,249,2.2,4.0,69,0.00,,,0.04,WeatherCatV1.12B45,2013-01-10 04:34:00,
2013-01-09 20:39:00,34.9,25.8,29.73,East,99,0.0,3.1,69,0.00,,,0.04,WeatherCatV1.12B45,2013-01-10 04:39:00,
2013-01-09 20:44:00,34.7,26.3,29.73,North,5,5.8,5.8,71,0.00,,,0.04,WeatherCatV1.12B45,2013-01-10 04:44:00,
2013-01-09 20:49:00,34.5,26.1,29.73,NNE,12,4.0,4.0,71,0.00,,,0.04,WeatherCatV1.12B45,2013-01-10 04:49:00,
2013-01-09 20:54:00,34.3,26.3,29.76,NNE,12,0.0,0.0,72,0.00,,,0.04,WeatherCatV1.12B45,2013-01-10 04:54:00,
2013-01-09 20:59:00,34.0,25.6,29.76,NNE,12,3.1,3.1,71,0.00,,,0.04,WeatherCatV1.12B45,2013-01-10 04:59:00,
2013-01-09 21:00:00,34.0,25.6,29.76,NNE,12,3.1,3.1,71,0.00,,,0.04,WeatherCatV1.12B45,2013-01-10 05:00:00,
2013-01-09 21:05:00,33.8,25.7,29.76,NNE,12,0.0,0.0,72,0.00,,,0.04,WeatherCatV1.12B45,2013-01-10 05:05:00,
2013-01-09 21:10:00,33.6,25.6,29.76,NNE,12,0.0,0.0,72,0.00,,,0.04,WeatherCatV1.12B45,2013-01-10 05:10:00,
2013-01-09 21:15:00,33.6,25.9,29.76,NNE,12,0.0,0.0,73,0.00,,,0.04,WeatherCatV1.12B45,2013-01-10 05:15:00,
2013-01-09 21:20:00,33.6,25.9,29.76,NNE,12,0.0,0.0,73,0.00,,,0.04,WeatherCatV1.12B45,2013-01-10 05:20:00,
2013-01-09 21:25:00,33.6,25.9,29.76,NNE,12,0.0,2.2,73,0.00,,,0.04,WeatherCatV1.12B45,2013-01-10 05:25:00,
2013-01-09 21:30:00,33.4,25.7,29.76,SSW,192,0.0,4.0,73,0.00,,,0.04,WeatherCatV1.12B45,2013-01-10 05:30:00,
2013-01-09 21:35:00,33.4,26.1,29.76,SSE,158,0.0,0.0,74,0.00,,,0.04,WeatherCatV1.12B45,2013-01-10 05:35:00,
2013-01-09 21:44:00,33.3,26.2,29.76,ESE,122,0.0,0.0,75,0.00,,,0.04,WeatherCatV1.12B45,2013-01-10 05:44:00,
2013-01-09 21:49:00,33.3,26.2,29.76,SE,141,0.0,4.0,75,0.00,,,0.04,WeatherCatV1.12B45,2013-01-10 05:49:00,
2013-01-09 21:54:00,33.3,26.2,29.76,SE,141,0.0,0.0,75,0.00,,,0.04,WeatherCatV1.12B45,2013-01-10 05:54:00,
2013-01-09 21:59:00,33.3,26.2,29.76,SE,141,0.0,0.0,75,0.00,,,0.04,WeatherCatV1.12B45,2013-01-10 05:59:00,
2013-01-09 22:00:00,33.3,26.2,29.76,SE,141,0.0,0.0,75,0.00,,,0.04,WeatherCatV1.12B45,2013-01-10 06:00:00,
2013-01-09 22:05:00,33.3,26.2,29.76,SE,141,0.0,0.0,75,0.00,,,0.04,WeatherCatV1.12B45,2013-01-10 06:05:00,
2013-01-09 22:10:00,33.3,26.2,29.76,ENE,70,0.0,3.6,75,0.00,,,0.04,WeatherCatV1.12B45,2013-01-10 06:10:00,
2013-01-09 22:15:00,33.4,26.7,29.76,ESE,105,6.3,6.3,76,0.00,,,0.04,WeatherCatV1.12B45,2013-01-10 06:15:00,
2013-01-09 22:20:00,33.6,26.6,29.76,NE,44,5.4,6.3,75,0.00,,,0.04,WeatherCatV1.12B45,2013-01-10 06:20:00,
2013-01-09 22:25:00,33.6,26.6,29.79,SSW,194,2.2,3.6,75,0.00,,,0.04,WeatherCatV1.12B45,2013-01-10 06:25:00,
2013-01-09 22:30:00,33.4,26.1,29.79,SW,230,0.0,0.0,74,0.00,,,0.04,WeatherCatV1.12B45,2013-01-10 06:30:00,
2013-01-09 22:35:00,33.3,25.9,29.79,WSW,237,0.0,3.6,74,0.00,,,0.04,WeatherCatV1.12B45,2013-01-10 06:35:00,
2013-01-09 22:40:00,33.3,25.9,29.79,SSW,200,2.2,2.7,74,0.00,,,0.04,WeatherCatV1.12B45,2013-01-10 06:40:00,
2013-01-09 22:45:00,33.1,25.4,29.79,SSW,200,0.0,0.0,73,0.00,,,0.04,WeatherCatV1.12B45,2013-01-10 06:45:00,
2013-01-09 22:50:00,33.1,25.4,29.79,ESE,112,3.6,4.0,73,0.00,,,0.04,WeatherCatV1.12B45,2013-01-10 06:50:00,
2013-01-09 22:55:00,33.1,25.7,29.79,ESE,103,0.0,4.0,74,0.00,,,0.04,WeatherCatV1.12B45,2013-01-10 06:55:00,
2013-01-09 23:00:00,32.9,25.5,29.79,ESE,103,0.0,0.0,74,0.00,,,0.04,WeatherCatV1.12B45,2013-01-10 07:00:00,
2013-01-09 23:05:00,32.9,25.5,29.79,SSE,165,0.0,0.0,74,0.00,,,0.04,WeatherCatV1.12B45,2013-01-10 07:05:00,
2013-01-09 23:10:00,32.9,25.2,29.79,ESE,117,5.4,5.4,73,0.00,,,0.04,WeatherCatV1.12B45,2013-01-10 07:10:00,
2013-01-09 23:15:00,32.7,25.0,29.79,SE,127,0.0,6.3,73,0.00,,,0.04,WeatherCatV1.12B45,2013-01-10 07:15:00,
2013-01-09 23:20:00,32.7,25.0,29.79,SSW,206,4.0,4.0,73,0.00,,,0.04,WeatherCatV1.12B45,2013-01-10 07:20:00,
2013-01-09 23:25:00,32.7,25.0,29.79,SSW,198,2.7,4.0,73,0.00,,,0.04,WeatherCatV1.12B45,2013-01-10 07:25:00,
2013-01-09 23:30:00,32.7,25.4,29.79,SSW,206,5.4,5.4,74,0.00,,,0.04,WeatherCatV1.12B45,2013-01-10 07:30:00,
2013-01-09 23:35:00,32.7,25.4,29.79,SSE,163,4.0,4.9,74,0.00,,,0.04,WeatherCatV1.12B45,2013-01-10 07:35:00,
2013-01-09 23:40:00,32.7,25.4,29.79,SSE,164,4.9,6.3,74,0.00,,,0.04,WeatherCatV1.12B45,2013-01-10 07:40:00,
2013-01-09 23:45:00,32.7,25.4,29.79,SSW,208,4.0,4.0,74,0.00,,,0.04,WeatherCatV1.12B45,2013-01-10 07:45:00,
2013-01-09 23:50:00,32.7,25.4,29.79,South,189,3.6,4.0,74,0.00,,,0.04,WeatherCatV1.12B45,2013-01-10 07:50:00,
2013-01-09 23:55:00,32.7,25.4,29.79,South,184,2.7,8.3,74,0.00,,,0.04,WeatherCatV1.12B45,2013-01-10 07:55:00,